Valparaiso, IN

8:43 PM CST on February 07, 2016 (GMT -0600)
Porter County Municipal

Weather History for KVPZ - June, 2013

Change the Weather History Date:

Wednesday, June 19, 2013

  Actual Average Record
Temperature  
Mean Temperature 67 °F 70 °F  
Max Temperature 80 °F 81 °F 91 °F (2012)
Min Temperature 53 °F 60 °F 47 °F (2004)
Degree Days  
Heating Degree Days 0 1  
Month to date heating degree days 37 37  
Since 1 June heating degree days 37 37  
Since 1 July heating degree days 6093 6316  
Cooling Degree Days 2 6  
Month to date cooling degree days 62 86  
Year to date cooling degree days 163 133  
Since 1 June cooling degree days 62 86  
Growing Degree Days 16 (Base 50)    
Moisture  
Dew Point 50 °F    
Average Humidity 59    
Maximum Humidity 80    
Minimum Humidity 40    
Precipitation  
Precipitation 0.00 in 0.11 in 0.61 in (2014)
Month to date precipitation 3.04 2.41  
Year to date precipitation 16.67 15.39  
Sea Level Pressure  
Sea Level Pressure 30.11 in    
Wind  
Wind Speed 6 mph (ENE)    
Max Wind Speed 10 mph    
Max Gust Speed 15 mph    
Visibility 10 miles    
Events      
T = Trace of Precipitation, MM = Missing Value Source: NWS Daily Summary

Daily Weather History Graph

Daily Weather History Graph

Search for Another Location

Airport or City:

Trip Planner

Search our weather history database for the weather conditions in past years. The results will help you decide how hot, cold, wet, or windy it might be!

Date:

Astronomy

Jun. 19, 2013 Rise Set
Actual Time 5:14 AM CDT 8:24 PM CDT
Civil Twilight 4:40 AM CDT 8:58 PM CDT
Nautical Twilight 3:56 AM CDT 9:42 PM CDT
Astronomical Twilight 3:04 AM CDT 10:34 PM CDT
Moon 4:15 PM CDT (6/19) 2:00 AM CDT (6/19)
Length of Visible Light 16h 18m
Length of Day
15h 10m
Waxing Gibbous, 80% of the Moon is Illuminated
Jun 19
Waxing Gibbous
Jun 23
Full
Jun 29
Last Quarter
Jul 8
New
Jul 15
First Quarter

Hourly Weather History & Observations

Time (CDT) Temp. Dew Point Humidity Pressure Visibility Wind Dir Wind Speed Gust Speed Precip Events Conditions
12:53 AM 59.0 °F 51.1 °F 75% 30.06 in 10.0 mi NE 5.8 mph - N/A   Clear
1:53 AM 57.0 °F 50.0 °F 77% 30.07 in 10.0 mi ENE 6.9 mph - N/A   Clear
2:53 AM 57.0 °F 48.9 °F 74% 30.08 in 10.0 mi ENE 4.6 mph - N/A   Clear
3:53 AM 55.0 °F 48.0 °F 77% 30.09 in 10.0 mi ENE 4.6 mph - N/A   Clear
4:53 AM 54.0 °F 46.9 °F 77% 30.11 in 10.0 mi East 4.6 mph - N/A   Clear
5:53 AM 54.0 °F 48.0 °F 80% 30.12 in 10.0 mi East 5.8 mph - N/A   Clear
6:53 AM 59.0 °F 48.0 °F 67% 30.13 in 10.0 mi East 6.9 mph - N/A   Clear
7:53 AM 63.0 °F 50.0 °F 63% 30.15 in 10.0 mi East 8.1 mph - N/A   Clear
8:53 AM 66.9 °F 52.0 °F 59% 30.16 in 10.0 mi East 8.1 mph - N/A   Clear
9:53 AM 70.0 °F 51.1 °F 51% 30.15 in 10.0 mi East 5.8 mph - N/A   Clear
10:53 AM 72.0 °F 52.0 °F 49% 30.14 in 10.0 mi East 5.8 mph - N/A   Clear
11:53 AM 73.0 °F 52.0 °F 48% 30.14 in 10.0 mi Calm Calm - N/A   Clear
12:53 PM 77.0 °F 54.0 °F 45% 30.12 in 10.0 mi Variable 5.8 mph - N/A   Clear
1:53 PM 77.0 °F 53.1 °F 43% 30.12 in 10.0 mi Variable 4.6 mph - N/A   Clear
2:53 PM 79.0 °F 53.1 °F 40% 30.11 in 10.0 mi ENE 6.9 mph - N/A   Clear
3:53 PM 77.0 °F 52.0 °F 42% 30.09 in 10.0 mi North 5.8 mph - N/A   Clear
4:53 PM 75.9 °F 51.1 °F 42% 30.09 in 10.0 mi North 8.1 mph - N/A   Clear
5:53 PM 75.0 °F 48.9 °F 40% 30.09 in 10.0 mi North 8.1 mph - N/A   Clear
6:53 PM 73.0 °F 48.9 °F 42% 30.10 in 10.0 mi North 6.9 mph - N/A   Clear
7:53 PM 69.1 °F 48.0 °F 47% 30.11 in 10.0 mi NNE 4.6 mph - N/A   Clear
8:53 PM 64.0 °F 48.9 °F 58% 30.10 in 10.0 mi NE 3.5 mph - N/A   Clear
9:53 PM 61.0 °F 50.0 °F 67% 30.12 in 10.0 mi NE 4.6 mph - N/A   Clear
10:53 PM 60.1 °F 50.0 °F 69% 30.12 in 10.0 mi ENE 3.5 mph - N/A   Clear
11:53 PM 59.0 °F 51.1 °F 75% 30.13 in 10.0 mi ENE 3.5 mph - N/A   Partly Cloudy